Regional Weather Roundup
Issued by NWS

Home | Current Version | Previous Version | Text Only | Print | Product List | Glossary On
Versions: 1 2 3 4 5 6 7 8 9 10 11 12 13 14 15 16 17 18 19 20 21 22 23 24 25 26 27 28 29 30 31 32 33 34 35 36 37 38 39 40 41 42 43 44 45 46 47 48 49 50
000
ASUS45 KBOI 201610
RWRID

IDAHO REGIONAL WEATHER ROUNDUP
NATIONAL WEATHER SERVICE BOISE ID
1000 AM MDT WED SEP 20 2017

NOTE: "FAIR" INDICATES FEW OR NO CLOUDS BELOW 12000 FEET
WITH NO SIGNIFICANT WEATHER AND/OR OBSTRUCTIONS TO VISIBILITY

IDZ012-014-201700-
SOUTHWEST IDAHO


CITY           SKY/WX    TMP DP  RH WIND       PRES   REMARKS
BOISE          CLOUDY    56  34  43 SE15      29.71F
CALDWELL       CLOUDY    52  39  61 E8        29.69F
MOUNTAIN HOME  PTSUNNY   54  36  50 SE14      29.75F
$$

IDZ016-017-201700-
SOUTHCENTRAL IDAHO


CITY           SKY/WX    TMP DP  RH WIND       PRES   REMARKS
BURLEY         CLOUDY    55  30  38 S20G29    29.80F
JEROME         CLOUDY    52  37  56 N5        29.81R
TWIN FALLS     PTSUNNY   59  31  34 S21G26    29.81F
$$

IDZ019>023-201700-
SOUTHEAST IDAHO


CITY           SKY/WX    TMP DP  RH WIND       PRES   REMARKS
IDAHO FALLS    PTSUNNY   52  31  44 S22G29    29.82F
POCATELLO      MOSUNNY   57  33  40 S24G31    29.83F
REXBURG        CLOUDY    48  31  51 S15G25    29.80F
$$

IDZ006-010-011-018-031-032-201700-
CENTRAL IDAHO MOUNTAINS


CITY           SKY/WX    TMP DP  RH WIND       PRES   REMARKS
MCCALL         CLOUDY    43  38  82 S14       29.65F
HAILEY         PTSUNNY   39  36  87 NW6       29.85F WCI  35
STANLEY          N/A     37  35  92 S8        29.75F WCI  31
SALMON         CLOUDY    49  35  58 S13G21    29.67F
CHALLIS        PTSUNNY   48  34  58 CALM      29.69F
$$

IDZ002-004-006-007-026-201700-
NORTHERN IDAHO


CITY           SKY/WX    TMP DP  RH WIND       PRES   REMARKS
LEWISTON       LGT RAIN  48  44  86 SE5       29.62S
LOWELL           N/A     44  42  93 CALM      29.68S
COEUR D`ALENE  MOSUNNY   47  42  83 NW3       29.62F
MULLAN PASS    FOG       31  29  92 CALM      29.58S VSB 3/4
$$



USA.gov is the U.S. government's official web portal to all federal, state and local government web resources and services.